#timestamp,LO_Frequency,Hit,StdDev 
1512284415.5,286046987.3,Y
1512284435.3,286046999.6,P
1512284455.1,286046996.6,N
1512284475.8,286046995.3,N
1512284495.7,286046996.7,N
1512284515.5,286046997.6,N
1512284535.3,286047000.5,N
1512284555.2,286046998.4,N
1512284575.9,286046996.5,N
1512284595.7,286047004.3,N
1512284615.6,286047005.7,N
1512284635.4,286047004.1,N
1512284655.2,286047006.5,N
1512284675.1,286047010.2,N
1512284676.0,286047010.2,N
1512284695.8,286047009.5,N
1512284715.6,286047004.6,N
1512284735.5,286047005.5,N
1512284755.3,286047010.2,N
1512284775.1,286047012.7,N
1512284795.8,286047016.8,N
1512284815.7,286047016.3,N
1512284835.5,286047019.4,N
1512284855.3,286047024.4,Y
1512284875.2,286047021.1,P
1512284895.0,286047022.6,N
1512284895.9,286047022.6,N
1512284915.8,286047026.0,Y
1512284935.6,286047015.3,P
1512284955.4,286047014.6,P
1512284975.2,286047015.6,P
1512284995.1,286047017.0,Y
1512284996.0,286047017.0,P
1512285015.8,286047002.7,P
1512285035.6,286047002.2,N
1512285055.5,286047003.9,N
1512285075.3,286047004.0,N
1512285095.1,286047004.3,N
1512285115.9,286047004.9,N
1512285135.7,286047009.1,N
1512285155.5,286047008.5,N
1512285175.4,286047006.1,N
1512285195.2,286047008.4,N
1512285215.0,286047011.7,N
1512285215.9,286047011.7,N
1512285235.8,286047007.8,N
1512285255.6,286047010.0,N
1512285275.4,286047008.5,N
1512285295.3,286047013.6,Y
1512285315.1,286047010.2,P
1512285316.0,286047010.2,P
1512285335.8,286047007.8,P
1512285355.7,286047008.1,Y
1512285375.5,286046998.1,P
1512285395.3,286046998.9,N
1512285415.2,286047000.1,N
1512285435.9,286046999.9,N
1512285455.7,286047000.1,N
1512285475.5,286046998.4,N
1512285495.4,286046997.3,N
1512285515.2,286046993.6,N
1512285535.0,286046992.0,N
1512285535.9,286046992.0,N
1512285555.8,286046996.2,N
1512285575.6,286046995.3,N
1512285595.4,286047000.8,N
1512285615.3,286047003.8,N
1512285635.1,286047005.9,N
1512285655.8,286047008.5,N
1512285675.7,286047010.3,N
1512285695.5,286047010.1,N
1512285715.3,286047009.8,N
1512285735.2,286047015.1,N
1512285755.9,286047014.4,N
1512285775.7,286047017.4,N
1512285795.5,286047020.3,N
1512285815.4,286047023.6,N
1512285835.2,286047025.0,N
1512285855.0,286047025.0,N
1512285855.9,286047025.0,N
1512285875.8,286047024.5,N
1512285895.6,286047021.7,N
1512285915.4,286047018.9,N
1512285935.3,286047019.1,N
1512285955.1,286047020.5,N
1512285956.0,286047020.5,N
1512285975.8,286047022.7,N
1512285995.7,286047023.3,N
1512286015.5,286047024.4,N
1512286035.3,286047030.9,N
1512286055.2,286047028.5,N
1512286075.9,286047029.4,N
1512286095.7,286047030.5,N
1512286115.6,286047034.2,Y
1512286135.4,286047017.1,P
1512286155.2,286047015.0,P
1512286175.1,286047011.5,P
1512286176.0,286047011.5,Y
1512286195.8,286046994.0,P
1512286215.6,286046991.7,N
1512286235.5,286046992.7,N
1512286255.3,286046992.3,N
1512286275.1,286046995.3,N
1512286295.9,286046998.7,N
1512286315.7,286047000.9,N
1512286335.5,286046999.6,N
1512286355.3,286046995.1,N
1512286375.2,286046993.6,N
1512286395.0,286046993.5,N
1512286395.9,286046993.5,N
1512286415.7,286046993.8,N
1512286435.6,286046996.4,N
1512286455.4,286046990.1,N
1512286475.2,286046994.4,N
1512286495.1,286046993.5,N
1512286496.0,286046993.5,N
1512286515.8,286046997.6,N
1512286535.6,286046995.7,N
1512286555.5,286046996.1,N
1512286575.3,286046991.8,N
1512286595.1,286046993.1,N
1512286615.9,286046989.4,N
1512286635.7,286046984.4,Y
1512286655.5,286046990.4,P
1512286675.4,286046994.0,N
1512286695.2,286046994.1,N
1512286715.0,286046997.2,N
1512286715.9,286046997.2,N
1512286735.8,286046999.3,N
1512286755.6,286046999.3,N
1512286775.4,286046997.2,N
1512286795.2,286046993.7,N
1512286815.1,286046996.6,N
1512286816.0,286046996.6,N
1512286835.8,286047001.2,N
1512286855.6,286046993.9,N
1512286875.5,286046990.6,Y
1512286895.3,286046994.5,P
1512286915.1,286046987.7,P
1512286935.9,286046982.5,P
1512286955.7,286046981.5,Y
1512286975.5,286046986.0,P
1512286995.4,286046985.4,P
1512287015.2,286046986.2,P
1512287035.0,286046984.8,Y
1512287036.0,286046984.8,P
1512287055.8,286046996.5,P
1512287075.6,286046992.4,N
1512287095.4,286046986.9,N
1512287115.3,286046989.7,N
1512287135.1,286046985.7,Y
1512287155.8,286046998.0,P
1512287175.7,286046993.9,N
1512287195.5,286046993.2,N
1512287215.3,286046994.1,N
1512287235.2,286046991.9,Y
1512287255.0,286047000.2,P
1512287255.9,286047000.2,N
1512287275.7,286047002.2,N
1512287295.6,286047001.3,N
1512287315.4,286047000.1,N
1512287335.2,286046999.4,N
1512287355.1,286046996.7,N
1512287356.0,286046996.7,N
1512287375.8,286047002.1,N
1512287395.6,286047002.6,N
1512287415.5,286047004.3,N
1512287435.3,286047003.1,N
1512287455.1,286047003.5,N
1512287475.9,286047000.2,N
1512287495.7,286047001.5,N
1512287515.5,286047009.2,Y
1512287535.4,286047008.3,P
1512287555.2,286047010.0,N
1512287575.0,286047014.4,P
1512287575.9,286047014.4,N
1512287595.8,286047015.9,Y
1512287615.6,286047010.1,P
1512287635.4,286047011.3,P
1512287655.3,286047013.0,P
1512287675.1,286047014.3,Y
1512287676.0,286047014.3,P
1512287695.8,286047005.8,P
1512287715.7,286047003.6,N
1512287735.5,286047004.9,N
1512287755.3,286047009.5,N
1512287775.2,286047011.7,Y
1512287795.9,286047003.9,P
1512287815.7,286047006.4,N
1512287835.6,286047011.2,P
1512287855.4,286047015.3,Y
1512287875.2,286047008.5,P
1512287895.1,286047008.7,P
1512287896.0,286047008.7,P
1512287915.8,286047003.6,Y
1512287935.6,286046997.7,P
1512287955.5,286046998.5,N
1512287975.3,286046999.8,N
1512287995.1,286047001.8,N
